Regional Weather Roundup
Issued by NWS

Home | Current Version | Previous Version | Text Only | Print | Product List | Glossary Off
Versions: 1 2 3 4 5 6 7 8 9 10 11 12 13 14 15 16 17 18 19 20 21 22 23 24 25 26 27 28 29 30 31 32 33 34 35 36 37 38 39 40 41 42 43 44 45 46 47 48 49 50

000
ASUS43 KFSD 091702
RWRSD

WEATHER ROUNDUP FOR SOUTH DAKOTA
NATIONAL WEATHER SERVICE SIOUX FALLS SD
1100 AM CST FRI DEC 09 2016

NOTE: "FAIR" INDICATES FEW OR NO CLOUDS BELOW 12,000 FEET WITH NO
SIGNIFICANT WEATHER AND/OR OBSTRUCTIONS TO VISIBILITY.


SDZ001>005-009-010-012>017-091800-
NORTHWEST AND NORTH CENTRAL SOUTH DAKOTA

CITY           SKY/WX    TMP DP  RH WIND       PRES   REMARKS
BUFFALO          N/A      0  -5  79 NE6       30.32R WCI -12
FAITH            N/A      0  -5  79 NE7       30.45R WCI -13
MOBRIDGE       CLOUDY     1  -6  72 N6        30.52R HAZE    WCI -10
$$

SDZ012>016-024>037-041>051-057-063-072>074-091800-
SOUTHWEST AND SOUTH CENTRAL SOUTH DAKOTA

CITY           SKY/WX    TMP DP  RH WIND       PRES   REMARKS
RAPID CTY ARPT FLURRIES   1  -4  79 N13       30.35R WCI -17
PIERRE         LGT SNOW   3  -2  79 NE12      30.51R WCI -13
CUSTER         CLOUDY     9   3  77 W6        30.07R WCI  -1
ELLSWORTH AFB  FLURRIES   1  -3  83 N9        30.34  WCI -14
PHILIP         LGT SNOW   4  -1  80 E12       30.45R WCI -12
PINE RIDGE     CLOUDY     4   0  83 NW7       30.30R WCI  -8
SPEARFISH      FAIR      -4  -9  77 N3        30.29R
WINNER         LGT SNOW   9   5  84 E12       30.45F FOG     WCI  -6
$$

SDZ004>011-016>023-039-040-091800-
NORTHEAST SOUTH DAKOTA

CITY           SKY/WX    TMP DP  RH WIND       PRES   REMARKS
ABERDEEN       MOSUNNY    5  -4  66 N7        30.59F WCI  -7
WATERTOWN      CLOUDY     1  -3  83 NW8       30.52F WCI -13
SISSETON         N/A      4  -3  73 N13       30.57F WCI -13
$$

SDZ017-020-022-023-036>040-048>070-091800-
SOUTHEAST SOUTH DAKOTA

CITY           SKY/WX    TMP DP  RH WIND       PRES   REMARKS
SIOUX FALLS    CLOUDY     8   2  76 CALM      30.56F
HURON          CLOUDY     4  -1  80 NE5       30.58F WCI  -5
CHAMBERLAIN    FLURRIES   8   3  80 E5        30.52S WCI  -1
MITCHELL       CLOUDY     6   0  76 NE6       30.58F WCI  -4
YANKTON        MOSUNNY    7   1  78 CALM      30.58S
$$

ABBREVIATIONS USED IN REMARKS
   TC - TEMPERATURE IN CELSIUS
  WCI - WIND CHILL INDEX
   HX - HEAT INDEX
  VSB - VISIBILITY





USA.gov is the U.S. government's official web portal to all federal, state and local government web resources and services.